Starlink 5652

operational
NORAD ID: 55334 Int'l Des: 2023-013 Owner: SPXS Country: US Constellation: starlink
LEOCIRCULAR

About Starlink 5652

Description loading...

Live Position

Loading 3D Globe...

Upcoming Passes

Altitude History

Altitude vs Time

uPlot chart will show altitude changes over time

Two-Line Element Set

1 55334U 23013D 25258.17785435 -.00000375 00000-0 -12658-4 0 9994
2 55334 43.0029 174.2816 0001210 264.4926 95.5778 15.02529374145308
Epoch: Sep 15, 2025 • Age: 16 hours

Current Status

Altitude 562.7 km
Velocity 7.59 km/s
Sub-Earth Point 41.31°N, 24.43°W
Launch Date Jan 26, 2023
Age 2.6 years
Type internet

Technical Details

Classification Payload
Mass 305.00 kg
Dry Mass 290.00 kg
Total Mass 305.00 kg
Length 0.20 m
Diameter 2.80 m
Span 9.00 m
Shape Box + pan
Manufacturer SPXS
Bus Type Starlink
Phase Status In Orbit
Owner/State SPXS/US

Large Constellations

Loading constellations...